Weather History for MRLB - December, 2012

Change the Weather History Date:

Saturday, December 22, 2012

  Actual Average Record
Temperature  
Mean Temperature 82 °F -  
Max Temperature 89 °F 88 °F 93 °F (2002)
Min Temperature 76 °F 73 °F 64 °F (2010)
Cooling Degree Days 18    
Growing Degree Days 32 (Base 50)    
Moisture  
Dew Point 65 °F    
Average Humidity 52    
Maximum Humidity 65    
Minimum Humidity 36    
Precipitation  
Precipitation 0.00 in - - ()
Sea Level Pressure  
Sea Level Pressure 29.83 in    
Wind  
Wind Speed 15 mph ()    
Max Wind Speed 30 mph    
Max Gust Speed 41 mph    
Visibility 7.7 miles    
Events      
Averages and records for this station are not official NWS values.
T = Trace of Precipitation, MM = Missing Value Source: Averaged Metar Reports

Daily Weather History Graph

Daily Weather History Graph

Search for Another Location

Airport or City:

Trip Planner

Search our weather history database for the weather conditions in past years. The results will help you decide how hot, cold, wet, or windy it might be!

Date:

Astronomy

Dec. 22, 2012 Rise Set
Actual Time 5:55 AM CST 5:26 PM CST
Civil Twilight 5:32 AM CST 5:49 PM CST
Nautical Twilight 5:06 AM CST 6:15 PM CST
Astronomical Twilight 4:40 AM CST 6:41 PM CST
Moon 1:15 PM CST (12/22) 1:12 AM CST (12/22)
Length of Visible Light 12h 16m
Length of Day
11h 30m
Waxing Gibbous, 74% of the Moon is Illuminated
Dec 22
Waxing Gibbous
Dec 28
Full
Jan 4
Last Quarter
Jan 11
New
Jan 18
First Quarter

Hourly Weather History & Observations

Time (CST) Temp. Heat Index Dew Point Humidity Pressure Visibility Wind Dir Wind Speed Gust Speed Precip Events Conditions
6:00 AM 77 °F - 65 °F 58% 29.83 in 12 mi WSW 5.8 mph - -   Scattered Clouds
6:00 AM 77.0 °F - 64.4 °F 65% 29.81 in 6.2 mi WSW 5.8 mph - N/A   Partly Cloudy
7:00 AM 80.6 °F 82.7 °F 66.2 °F 61% 29.83 in 6.2 mi SSE 2.3 mph - N/A   Scattered Clouds
8:00 AM 84.2 °F 85.6 °F 64.4 °F 51% 29.85 in 6.2 mi NE 15.0 mph - N/A   Scattered Clouds
9:00 AM 85 °F - 65 °F 41% 29.88 in 12 mi ENE 20.7 mph - -   Scattered Clouds
9:00 AM 86.0 °F 87.3 °F 64.4 °F 48% 29.87 in 6.2 mi ENE 20.7 mph - N/A   Scattered Clouds
10:00 AM 86.0 °F 87.3 °F 64.4 °F 48% 29.86 in 6.2 mi ENE 28.8 mph 40.3 mph N/A   Scattered Clouds
11:00 AM 86.0 °F 87.3 °F 64.4 °F 48% 29.85 in 6.2 mi ENE 28.8 mph 41.4 mph N/A   Scattered Clouds
12:00 PM 87 °F - 64 °F 36% 29.85 in 12 mi ENE 27.6 mph - -   Partly Cloudy
12:00 PM 87.8 °F 89.4 °F 64.4 °F 46% 29.84 in 6.2 mi ENE 27.6 mph 40.3 mph N/A   Scattered Clouds
1:00 PM 87.8 °F 89.4 °F 64.4 °F 46% 29.82 in 6.2 mi ENE 25.3 mph 38.0 mph N/A   Scattered Clouds
2:00 PM 86.0 °F 88.2 °F 66.2 °F 51% 29.80 in 6.2 mi NE 29.9 mph 41.4 mph N/A   Scattered Clouds
3:00 PM 87 °F - 65 °F 38% 29.80 in 12 mi ENE 25.3 mph - -   Partly Cloudy
3:00 PM 87.8 °F 89.4 °F 64.4 °F 46% 29.78 in 6.2 mi ENE 25.3 mph 39.1 mph N/A   Partly Cloudy
4:00 PM 82.4 °F 84.6 °F 66.2 °F 58% 29.81 in 6.2 mi ENE 26.5 mph 38.0 mph N/A   Mostly Cloudy
5:00 PM 80.6 °F 82.3 °F 64.4 °F 58% 29.82 in 6.2 mi ENE 21.9 mph 34.5 mph N/A   Scattered Clouds
6:00 PM 79 °F - 64 °F 51% 29.84 in 12 mi ENE 19.6 mph - -   Scattered Clouds
6:00 PM 78.8 °F - 64.4 °F 61% 29.83 in 6.2 mi ENE 19.6 mph 33.4 mph N/A   Partly Cloudy
7:00 PM 78.8 °F - 64.4 °F 61% 29.84 in - ENE 25.3 mph - N/A   Clear
8:00 PM 78.8 °F - 64.4 °F 61% 29.87 in 6.2 mi East 15.0 mph - N/A   Partly Cloudy